Location: Frankfurt+(oder)
(51.7984°N, 12.2168°E)
Time: 00:25:15
(UTC+02:00)

ISS - Visible Passes

Search period start: 22 October 2019 00:00
Search period end: 31 October 2019 23:00
Orbit: 411 x 421 km, 51.6° (Epoch: 21 October)

Date Brightness Start Highest point End Pass type
(mag) Time Alt. Az. Time Alt. Az. Time Alt. Az.
24 Oct -0.6 06:51:18 10° SSE 06:52:39 12° SE 06:53:59 10° ESE visible
26 Oct -1.5 06:49:02 10° SSW 06:51:47 23° SSE 06:54:32 10° E visible
27 Oct -1.1 05:01:08 10° S 05:03:21 16° SE 05:05:34 10° E visible
28 Oct -0.8 04:14:37 11° SE 04:14:57 11° SE 04:16:00 10° ESE visible
28 Oct -2.7 05:47:48 10° SW 05:51:01 42° SSE 05:54:13 10° E visible
29 Oct -2.2 05:01:14 23° S 05:02:29 31° SSE 05:05:30 10° E visible
30 Oct -1.3 04:14:50 20° ESE 04:14:50 20° ESE 04:16:39 10° E visible
30 Oct -3.5 05:47:44 16° WSW 05:50:20 67° SSE 05:53:41 10° E visible
31 Oct -3.3 05:01:13 47° SSW 05:01:42 53° SSE 05:05:00 10° E visible
